UAE52M OMDB-EDDF

Flight info

Callsign UAE52M
Flight time N/A
Altitude 37000
Route ANVIX L223 TARDI N629 BOTAM Y855 LAKLU/N0494F360 Q204 NALKI G652 TOKRA DCT ALROK DCT BOSOB DCT ITRUX Y511 ASMIS/N0494F380 Y511 PMA Z712 WEJ L677 GESON Q777 RASDA DCT OTHON UN128 RDS UL609 MES DCT EVIVI/N0481F400 DCT OKANA DCT NIVIS DCT BABIT DCT ARSIN DCT BUDEX DCT IPDUL DCT RAPET T170 VAGAB/N0389F240 T170 GAPLA T178 KERAX KERAX5A
Aircraft A388/J-SADE2E3FGHIJ3J4J5M1RWXY/LB1D1

Departure

Time 2026-05-04 15:42
Airport Dubai International Airport (OMDB)

Arrival

Time N/A
Airport Frankfurt Main Airport (EDDF)
Time Latitude Longitude Altitude Speed Heading
2026-05-04 15:14 25.24844 55.36373 26 ft 0 kts 211°
2026-05-04 15:26 25.24859 55.36383 32 ft 4 kts 211°
2026-05-04 15:26 25.24882 55.36399 31 ft 4 kts 211°
2026-05-04 15:26 25.24911 55.36430 30 ft 4 kts 259°
2026-05-04 15:27 25.24909 55.36450 26 ft 4 kts 296°
2026-05-04 15:27 25.24883 55.36498 31 ft 2 kts 302°
2026-05-04 15:28 25.24883 55.36499 31 ft 0 kts 302°
2026-05-04 15:30 25.24888 55.36488 26 ft 4 kts 300°
2026-05-04 15:30 25.25005 55.36278 30 ft 14 kts 302°
2026-05-04 15:31 25.25074 55.36159 30 ft 14 kts 302°
2026-05-04 15:31 25.25127 55.36067 30 ft 14 kts 302°
2026-05-04 15:32 25.25283 55.35784 29 ft 14 kts 302°
2026-05-04 15:32 25.25396 55.35588 28 ft 16 kts 301°
2026-05-04 15:33 25.25508 55.35381 30 ft 15 kts 303°
2026-05-04 15:34 25.25650 55.35155 29 ft 7 kts 340°
2026-05-04 15:34 25.25728 55.35185 32 ft 19 kts 35°
2026-05-04 15:34 25.25970 55.35351 26 ft 16 kts 38°
2026-05-04 15:35 25.25966 55.35598 27 ft 20 kts 122°
2026-05-04 15:35 25.25889 55.35735 27 ft 22 kts 122°
2026-05-04 15:35 25.25806 55.35880 27 ft 23 kts 122°
2026-05-04 15:36 25.25644 55.36164 28 ft 22 kts 122°
2026-05-04 15:36 25.25563 55.36312 27 ft 23 kts 121°
2026-05-04 15:36 25.25478 55.36467 27 ft 24 kts 121°
2026-05-04 15:37 25.25387 55.36628 26 ft 25 kts 122°
2026-05-04 15:37 25.25292 55.36794 27 ft 26 kts 122°
2026-05-04 15:37 25.25196 55.36964 27 ft 26 kts 122°
2026-05-04 15:37 25.25114 55.37110 28 ft 18 kts 122°
2026-05-04 15:38 25.25045 55.37233 28 ft 20 kts 122°
2026-05-04 15:38 25.24969 55.37369 29 ft 21 kts 122°
2026-05-04 15:38 25.24887 55.37515 28 ft 23 kts 122°
2026-05-04 15:38 25.24799 55.37671 28 ft 24 kts 122°
2026-05-04 15:39 25.24710 55.37831 27 ft 25 kts 122°
2026-05-04 15:39 25.24629 55.37975 28 ft 11 kts 122°
2026-05-04 15:39 25.24647 55.38056 29 ft 8 kts 36°
2026-05-04 15:40 25.24701 55.38094 30 ft 10 kts 31°
2026-05-04 15:40 25.24741 55.38109 31 ft 5 kts 348°
2026-05-04 15:40 25.24771 55.38089 31 ft 0 kts 298°
2026-05-04 15:40 25.24793 55.38047 30 ft 27 kts 301°
2026-05-04 15:41 25.25023 55.37633 31 ft 97 kts 302°
2026-05-04 15:41 25.25478 55.36822 29 ft 147 kts 302°
2026-05-04 15:41 25.26061 55.35762 153 ft 167 kts 300°
2026-05-04 15:41 25.26657 55.34707 636 ft 163 kts 300°
2026-05-04 15:42 25.27270 55.33590 846 ft 175 kts 299°
2026-05-04 15:42 25.27885 55.32429 1248 ft 174 kts 299°
2026-05-04 15:42 25.28513 55.31233 1562 ft 182 kts 301°
2026-05-04 15:42 25.29135 55.30028 1967 ft 183 kts 289°
2026-05-04 15:43 25.29195 55.28631 2334 ft 188 kts 256°
2026-05-04 15:43 25.28648 55.27279 2542 ft 198 kts 246°
2026-05-04 15:43 25.28034 55.25886 2730 ft 206 kts 246°
2026-05-04 15:43 25.27419 55.24449 3032 ft 207 kts 248°
2026-05-04 15:44 25.26801 55.22991 3258 ft 211 kts 247°
2026-05-04 15:44 25.26179 55.21525 3527 ft 210 kts 247°
2026-05-04 15:44 25.25550 55.20040 3666 ft 218 kts 247°
2026-05-04 15:44 25.24869 55.18453 3774 ft 239 kts 243°
2026-05-04 15:45 25.23707 55.17096 4202 ft 251 kts 210°
2026-05-04 15:45 25.22030 55.16543 4800 ft 256 kts 181°
2026-05-04 15:45 25.20244 55.16638 5264 ft 267 kts 169°
2026-05-04 15:45 25.18535 55.17403 5731 ft 273 kts 141°
2026-05-04 15:46 25.17301 55.18974 6316 ft 272 kts 116°
2026-05-04 15:46 25.16433 55.20877 6591 ft 288 kts 112°
2026-05-04 15:46 25.15573 55.22917 7007 ft 296 kts 113°
2026-05-04 15:46 25.14667 55.24978 7566 ft 300 kts 114°
2026-05-04 15:47 25.13717 55.27042 8144 ft 303 kts 115°
2026-05-04 15:47 25.12738 55.29106 8759 ft 305 kts 116°
2026-05-04 15:47 25.11738 55.31188 9341 ft 308 kts 116°
2026-05-04 15:47 25.10731 55.33287 9838 ft 311 kts 114°
2026-05-04 15:48 25.09829 55.35466 10378 ft 313 kts 112°
2026-05-04 15:48 25.08929 55.37663 10940 ft 315 kts 112°
2026-05-04 15:48 25.07100 55.42097 12050 ft 320 kts 112°
2026-05-04 15:49 25.06188 55.44393 12278 ft 335 kts 111°
2026-05-04 15:49 25.05268 55.46813 12433 ft 350 kts 111°
2026-05-04 15:49 25.04309 55.49344 12579 ft 365 kts 111°
2026-05-04 15:49 25.03311 55.51958 12953 ft 372 kts 111°
2026-05-04 15:50 25.02297 55.54591 13503 ft 375 kts 112°
2026-05-04 15:50 25.01067 55.57143 13986 ft 378 kts 120°
2026-05-04 15:50 24.99697 55.59631 14462 ft 381 kts 120°
2026-05-04 15:50 24.98329 55.62152 14933 ft 384 kts 120°
2026-05-04 15:51 24.96959 55.64691 15411 ft 387 kts 120°
2026-05-04 15:51 24.95596 55.67218 15877 ft 390 kts 120°
2026-05-04 15:51 24.94177 55.69824 16322 ft 393 kts 122°
2026-05-04 15:51 24.92599 55.72252 16783 ft 397 kts 126°
2026-05-04 15:52 24.90956 55.74711 17235 ft 400 kts 126°
2026-05-04 15:52 24.89310 55.77192 17695 ft 403 kts 126°
2026-05-04 15:52 24.87651 55.79697 18129 ft 406 kts 126°
2026-05-04 15:52 24.85975 55.82227 18503 ft 409 kts 126°
2026-05-04 15:53 24.84293 55.84762 18953 ft 410 kts 126°
2026-05-04 15:53 24.82598 55.87300 19332 ft 413 kts 126°
2026-05-04 15:53 24.80874 55.89843 19714 ft 416 kts 127°
2026-05-04 15:53 24.79136 55.92398 20088 ft 418 kts 128°
2026-05-04 15:54 24.77222 55.94811 20482 ft 420 kts 136°
2026-05-04 15:54 24.75073 55.97003 20862 ft 422 kts 138°
2026-05-04 15:54 24.72916 55.99202 21249 ft 424 kts 138°
2026-05-04 15:54 24.70751 56.01429 21615 ft 427 kts 138°
2026-05-04 15:55 24.68579 56.03665 22005 ft 429 kts 138°
2026-05-04 15:55 24.66394 56.05917 22376 ft 432 kts 138°
2026-05-04 15:55 24.64093 56.08030 22760 ft 430 kts 149°
2026-05-04 15:55 24.61431 56.09490 23170 ft 428 kts 163°
2026-05-04 15:56 24.58532 56.10187 23488 ft 426 kts 178°
2026-05-04 15:56 24.55593 56.10079 23820 ft 422 kts 193°
2026-05-04 15:56 24.52791 56.09192 24120 ft 419 kts 207°
2026-05-04 15:56 24.50278 56.07613 24425 ft 416 kts 220°
2026-05-04 15:57 24.48206 56.05432 24724 ft 413 kts 234°
2026-05-04 15:57 24.46674 56.02774 24820 ft 412 kts 247°
2026-05-04 15:57 24.45761 55.99823 24818 ft 407 kts 258°
2026-05-04 15:57 24.45216 55.96779 24822 ft 406 kts 261°
2026-05-04 15:58 24.44739 55.93722 24837 ft 406 kts 261°
2026-05-04 15:58 24.44235 55.90676 24834 ft 407 kts 260°
2026-05-04 15:58 24.43690 55.87628 24828 ft 407 kts 259°
2026-05-04 15:58 24.43117 55.84590 24819 ft 407 kts 259°
2026-05-04 15:59 24.42531 55.81553 24820 ft 407 kts 259°
2026-05-04 15:59 24.41940 55.78519 24810 ft 407 kts 259°
2026-05-04 15:59 24.41347 55.75484 24804 ft 407 kts 259°
2026-05-04 15:59 24.40753 55.72450 24798 ft 407 kts 259°
2026-05-04 16:00 24.40160 55.69415 24801 ft 407 kts 259°
2026-05-04 16:00 24.39565 55.66378 24803 ft 407 kts 259°
2026-05-04 16:00 24.38972 55.63347 24801 ft 407 kts 259°
2026-05-04 16:00 24.38378 55.60317 24792 ft 407 kts 259°
2026-05-04 16:01 24.37783 55.57288 24796 ft 407 kts 259°
2026-05-04 16:01 24.37187 55.54252 24796 ft 407 kts 258°
2026-05-04 16:01 24.36589 55.51220 24798 ft 407 kts 258°
2026-05-04 16:01 24.35991 55.48187 24798 ft 407 kts 258°
2026-05-04 16:02 24.35392 55.45154 24791 ft 407 kts 258°
2026-05-04 16:02 24.34792 55.42121 24797 ft 407 kts 258°
2026-05-04 16:02 24.33591 55.36059 24798 ft 407 kts 258°
2026-05-04 16:03 24.32989 55.33025 24797 ft 407 kts 258°
2026-05-04 16:03 24.32387 55.29994 24793 ft 407 kts 258°
2026-05-04 16:03 24.31784 55.26962 24791 ft 407 kts 258°
2026-05-04 16:03 24.31187 55.23965 24796 ft 408 kts 258°
2026-05-04 16:04 24.30583 55.20931 24795 ft 408 kts 258°